Tracking 30923 objects as of 1-Jul-2025
HD Live streaming from Space Station
objects crossing your sky now

STARLINK-3902

Track STARLINK-3902 now!
10-day predictions
STARLINK-3902 is classified as:


NORAD ID: 52487
Int'l Code: 2022-049AN
Perigee: 545.9 km
Apogee: 547.9 km
Inclination: 53.2 °
Period: 95.4 minutes
Semi major axis: 6917 km
RCS: Unknown
Launch date: May 6, 2022
Source: United States (US)
Launch site: AIR FORCE EASTERN TEST RANGE (AFETR)
Your satellite tracking list
COSMOS 739
Track 1 satellite(s)




NASA's NSSDC Master Catalog

Two Line Element Set (TLE):
1 52487U 22049AN  25181.47894810  .00000468  00000-0  47512-4 0  9992
2 52487  53.2179 101.4439 0001496  99.8753 260.2408 15.08836333175553
Source of the keplerian elements: AFSPC